BAW29C EGCC-EGLL

Flight info

Callsign BAW29C
Flight time 0h 30m
Altitude 17000
Route SANBA N859 UTUXA/N0421F190 N859 HON
Aircraft B77W/H-SDE1E2E3FGHIJ2J3J4J5M1RWXY/LB1D1

Departure

Time 2026-05-05 19:36
Airport Manchester Airport (EGCC)

Arrival

Time 2026-05-05 20:07
Airport London Heathrow Airport (EGLL)
Time Latitude Longitude Altitude Speed Heading
2026-05-05 19:10 53.36710 -2.28834 252 ft 0 kts 315°
2026-05-05 19:21 53.36700 -2.28818 252 ft 3 kts 315°
2026-05-05 19:21 53.36687 -2.28796 252 ft 3 kts 313°
2026-05-05 19:21 53.36677 -2.28770 252 ft 3 kts 278°
2026-05-05 19:21 53.36678 -2.28739 252 ft 3 kts 243°
2026-05-05 19:22 53.36687 -2.28717 252 ft 3 kts 202°
2026-05-05 19:22 53.36689 -2.28715 252 ft 0 kts 193°
2026-05-05 19:23 53.36682 -2.28719 252 ft 3 kts 201°
2026-05-05 19:23 53.36673 -2.28728 252 ft 0 kts 214°
2026-05-05 19:24 53.36663 -2.28739 252 ft 6 kts 214°
2026-05-05 19:24 53.36629 -2.28775 252 ft 14 kts 209°
2026-05-05 19:24 53.36585 -2.28764 252 ft 10 kts 154°
2026-05-05 19:25 53.36482 -2.28637 252 ft 19 kts 124°
2026-05-05 19:25 53.36404 -2.28428 252 ft 22 kts 124°
2026-05-05 19:25 53.36309 -2.28228 252 ft 19 kts 134°
2026-05-05 19:25 53.36292 -2.28202 252 ft 7 kts 139°
2026-05-05 19:26 53.36183 -2.28038 252 ft 32 kts 135°
2026-05-05 19:26 53.36076 -2.27873 252 ft 24 kts 152°
2026-05-05 19:26 53.35872 -2.27846 252 ft 41 kts 183°
2026-05-05 19:26 53.35614 -2.27935 250 ft 30 kts 213°
2026-05-05 19:27 53.35450 -2.28140 243 ft 30 kts 192°
2026-05-05 19:27 53.35262 -2.28256 239 ft 21 kts 216°
2026-05-05 19:27 53.35174 -2.28414 242 ft 17 kts 238°
2026-05-05 19:27 53.35101 -2.28569 237 ft 17 kts 227°
2026-05-05 19:28 53.35022 -2.28715 239 ft 15 kts 228°
2026-05-05 19:28 53.34947 -2.28854 236 ft 16 kts 228°
2026-05-05 19:28 53.34862 -2.29011 230 ft 21 kts 228°
2026-05-05 19:28 53.34786 -2.29168 226 ft 12 kts 232°
2026-05-05 19:29 53.34747 -2.29245 221 ft 0 kts 228°
2026-05-05 19:29 53.34721 -2.29285 221 ft 0 kts 219°
2026-05-05 19:33 53.34693 -2.29314 223 ft 8 kts 207°
2026-05-05 19:33 53.34631 -2.29337 220 ft 14 kts 172°
2026-05-05 19:34 53.34533 -2.29245 223 ft 11 kts 115°
2026-05-05 19:34 53.34544 -2.29185 221 ft 13 kts 39°
2026-05-05 19:34 53.34578 -2.29139 222 ft 0 kts 46°
2026-05-05 19:36 53.34688 -2.28957 230 ft 65 kts 47°
2026-05-05 19:36 53.35172 -2.27927 248 ft 159 kts 51°
2026-05-05 19:36 53.36026 -2.26197 697 ft 197 kts 49°
2026-05-05 19:36 53.36862 -2.24616 2583 ft 179 kts 56°
2026-05-05 19:37 53.37367 -2.22485 3239 ft 226 kts 84°
2026-05-05 19:37 53.37102 -2.19838 4446 ft 239 kts 109°
2026-05-05 19:37 53.36262 -2.17287 4862 ft 265 kts 135°
2026-05-05 19:37 53.34744 -2.15455 5350 ft 276 kts 158°
2026-05-05 19:38 53.32849 -2.15060 6080 ft 280 kts 192°
2026-05-05 19:38 53.31016 -2.16116 6788 ft 281 kts 201°
2026-05-05 19:38 53.29098 -2.17060 7384 ft 291 kts 193°
2026-05-05 19:38 53.27095 -2.17666 8165 ft 296 kts 191°
2026-05-05 19:39 53.25023 -2.18155 8852 ft 304 kts 189°
2026-05-05 19:39 53.22945 -2.18540 9745 ft 305 kts 187°
2026-05-05 19:39 53.20822 -2.18888 10506 ft 308 kts 187°
2026-05-05 19:39 53.18680 -2.19228 11241 ft 310 kts 188°
2026-05-05 19:40 53.16540 -2.19703 11908 ft 310 kts 198°
2026-05-05 19:40 53.14682 -2.21447 12447 ft 310 kts 230°
2026-05-05 19:40 53.13641 -2.24509 13162 ft 305 kts 259°
2026-05-05 19:40 53.13649 -2.27986 13878 ft 302 kts 282°
2026-05-05 19:41 53.13809 -2.31480 14291 ft 310 kts 259°
2026-05-05 19:41 53.12901 -2.34744 14819 ft 320 kts 231°
2026-05-05 19:41 53.11112 -2.37013 15074 ft 343 kts 204°
2026-05-05 19:41 53.08702 -2.37772 15227 ft 368 kts 178°
2026-05-05 19:42 53.06157 -2.36681 15389 ft 393 kts 154°
2026-05-05 19:42 53.03960 -2.33817 15559 ft 414 kts 130°
2026-05-05 19:42 53.02298 -2.29844 15847 ft 424 kts 124°
2026-05-05 19:42 53.00476 -2.25939 16322 ft 432 kts 134°
2026-05-05 19:43 52.98281 -2.22534 16933 ft 431 kts 140°
2026-05-05 19:43 52.95991 -2.19304 17028 ft 434 kts 142°
2026-05-05 19:43 52.93596 -2.16376 17031 ft 433 kts 147°
2026-05-05 19:43 52.91057 -2.13702 17030 ft 432 kts 150°
2026-05-05 19:44 52.88450 -2.11246 17028 ft 431 kts 153°
2026-05-05 19:44 52.85804 -2.08912 17027 ft 431 kts 154°
2026-05-05 19:44 52.83139 -2.06634 17023 ft 431 kts 154°
2026-05-05 19:44 52.80467 -2.04373 17023 ft 431 kts 154°
2026-05-05 19:45 52.77798 -2.02112 17025 ft 431 kts 154°
2026-05-05 19:45 52.75129 -1.99845 17024 ft 431 kts 154°
2026-05-05 19:45 52.72466 -1.97576 17012 ft 431 kts 154°
2026-05-05 19:45 52.69840 -1.95334 17017 ft 431 kts 154°
2026-05-05 19:46 52.67183 -1.93066 17016 ft 430 kts 154°
2026-05-05 19:46 52.64527 -1.90799 17013 ft 430 kts 154°
2026-05-05 19:46 52.61869 -1.88534 17014 ft 430 kts 154°
2026-05-05 19:46 52.59216 -1.86276 17006 ft 429 kts 154°
2026-05-05 19:47 52.56563 -1.84022 17001 ft 429 kts 154°
2026-05-05 19:47 52.53909 -1.81771 17001 ft 429 kts 154°
2026-05-05 19:47 52.51255 -1.79522 16999 ft 429 kts 154°
2026-05-05 19:47 52.48638 -1.77307 16998 ft 429 kts 154°
2026-05-05 19:48 52.45989 -1.75068 17000 ft 429 kts 154°
2026-05-05 19:48 52.43334 -1.72828 17002 ft 429 kts 154°
2026-05-05 19:48 52.40681 -1.70591 17001 ft 429 kts 154°
2026-05-05 19:48 52.38027 -1.68358 17001 ft 429 kts 154°
2026-05-05 19:49 52.35393 -1.66068 16996 ft 428 kts 149°
2026-05-05 19:49 52.33793 -1.64194 16997 ft 428 kts 141°
2026-05-05 19:49 52.30835 -1.59820 17006 ft 429 kts 138°
2026-05-05 19:49 52.28636 -1.56527 16810 ft 428 kts 139°
2026-05-05 19:50 52.26420 -1.53312 16298 ft 425 kts 140°
2026-05-05 19:50 52.24189 -1.50159 15736 ft 422 kts 140°
2026-05-05 19:50 52.21971 -1.47056 15265 ft 418 kts 140°
2026-05-05 19:50 52.19774 -1.43991 15095 ft 424 kts 140°
2026-05-05 19:51 52.17540 -1.40873 15027 ft 420 kts 140°
2026-05-05 19:51 52.15358 -1.37828 15013 ft 405 kts 140°
2026-05-05 19:51 52.13261 -1.34903 15003 ft 389 kts 140°
2026-05-05 19:51 52.11249 -1.32100 15008 ft 373 kts 140°
2026-05-05 19:52 52.09318 -1.29412 15002 ft 359 kts 141°
2026-05-05 19:52 52.07436 -1.26797 14977 ft 354 kts 141°
2026-05-05 19:52 52.05572 -1.24212 14727 ft 352 kts 140°
2026-05-05 19:52 52.03715 -1.21637 14371 ft 350 kts 141°
2026-05-05 19:53 52.01863 -1.19073 13930 ft 349 kts 141°
2026-05-05 19:53 52.00049 -1.16560 13845 ft 337 kts 141°
2026-05-05 19:53 51.98324 -1.14176 13749 ft 326 kts 141°
2026-05-05 19:53 51.96627 -1.11834 13650 ft 315 kts 141°
2026-05-05 19:54 51.94986 -1.09571 13477 ft 306 kts 141°
2026-05-05 19:54 51.93382 -1.07362 13217 ft 300 kts 141°
2026-05-05 19:54 51.91793 -1.05175 12854 ft 299 kts 141°
2026-05-05 19:54 51.90220 -1.03010 12575 ft 293 kts 141°
2026-05-05 19:55 51.88688 -1.00904 12388 ft 285 kts 141°
2026-05-05 19:55 51.87259 -0.98911 12191 ft 273 kts 141°
2026-05-05 19:55 51.85644 -0.97411 11739 ft 269 kts 165°
2026-05-05 19:55 51.83824 -0.96722 11271 ft 270 kts 170°
2026-05-05 19:56 51.81989 -0.96122 10880 ft 267 kts 171°
2026-05-05 19:56 51.80164 -0.95538 10414 ft 268 kts 170°
2026-05-05 19:56 51.78366 -0.94992 10028 ft 264 kts 170°
2026-05-05 19:56 51.76539 -0.94446 9578 ft 263 kts 170°
2026-05-05 19:57 51.74768 -0.93924 9127 ft 261 kts 170°
2026-05-05 19:57 51.73562 -0.93572 8822 ft 260 kts 170°
2026-05-05 19:57 51.71218 -0.92897 8268 ft 257 kts 171°
2026-05-05 19:57 51.69452 -0.92396 7714 ft 261 kts 170°
2026-05-05 19:58 51.67612 -0.91888 6856 ft 278 kts 170°
2026-05-05 19:58 51.65662 -0.91368 6027 ft 286 kts 170°
2026-05-05 19:58 51.63720 -0.90888 5438 ft 277 kts 171°
2026-05-05 19:58 51.61883 -0.90476 5077 ft 254 kts 171°
2026-05-05 19:59 51.60250 -0.90125 5007 ft 220 kts 172°
2026-05-05 19:59 51.58806 -0.89822 4956 ft 199 kts 172°
2026-05-05 19:59 51.57455 -0.89548 4947 ft 195 kts 172°
2026-05-05 19:59 51.56107 -0.89276 4870 ft 195 kts 172°
2026-05-05 20:00 51.54788 -0.89013 4461 ft 193 kts 172°
2026-05-05 20:00 51.53459 -0.88753 3885 ft 192 kts 171°
2026-05-05 20:00 51.52149 -0.88503 3291 ft 187 kts 169°
2026-05-05 20:00 51.51023 -0.87681 3018 ft 182 kts 130°
2026-05-05 20:01 51.50299 -0.86034 3024 ft 182 kts 120°
2026-05-05 20:01 51.49596 -0.84339 2992 ft 181 kts 121°
2026-05-05 20:01 51.48909 -0.82702 2950 ft 173 kts 121°
2026-05-05 20:01 51.48262 -0.81100 2943 ft 170 kts 111°
2026-05-05 20:02 51.48025 -0.79269 2997 ft 169 kts 95°
2026-05-05 20:02 51.47808 -0.77398 2967 ft 170 kts 99°
2026-05-05 20:02 51.47675 -0.75558 2966 ft 164 kts 89°
2026-05-05 20:02 51.47662 -0.73745 2966 ft 162 kts 87°
2026-05-05 20:03 51.47665 -0.71948 2865 ft 165 kts 87°
2026-05-05 20:03 51.47671 -0.70085 2547 ft 167 kts 88°
2026-05-05 20:03 51.47677 -0.68252 2223 ft 161 kts 88°
2026-05-05 20:03 51.47684 -0.66480 1924 ft 158 kts 88°
2026-05-05 20:04 51.47690 -0.64725 1647 ft 157 kts 88°
2026-05-05 20:04 51.47696 -0.62967 1365 ft 158 kts 88°
2026-05-05 20:04 51.47703 -0.61215 1306 ft 158 kts 89°
2026-05-05 20:04 51.47709 -0.59446 1329 ft 159 kts 88°
2026-05-05 20:05 51.47715 -0.57670 1289 ft 160 kts 89°
2026-05-05 20:05 51.47701 -0.55884 1131 ft 161 kts 90°
2026-05-05 20:05 51.47723 -0.54125 963 ft 160 kts 88°
2026-05-05 20:05 51.47750 -0.52326 645 ft 160 kts 86°
2026-05-05 20:06 51.47751 -0.50556 437 ft 158 kts 89°
2026-05-05 20:06 51.47745 -0.48791 264 ft 161 kts 87°
2026-05-05 20:06 51.47776 -0.47021 96 ft 152 kts 86°
2026-05-05 20:06 51.47754 -0.45502 90 ft 107 kts 91°
2026-05-05 20:07 51.47713 -0.44749 99 ft 36 kts 123°